This is the latest recevied weather packets stored in our database for station/object KV9E. If no packets are shown the sender has not sent any weather packets the latest 10 day(s).
| Time | Temp. | Humidity | Pressure | Rain* | Wind** | Luminosity | Snow |
|---|---|---|---|---|---|---|---|
| 1777664652 | 16.67° C | 55% | 1013.7 hPa | 0 mm | - | 185 W/m² | - |
| 1777664348 | 16.67° C | 54% | 1013.7 hPa | 0 mm | - | 395 W/m² | - |
| 1777664047 | 16.67° C | 54% | 1013.7 hPa | 0 mm | - | 435 W/m² | - |
| 1777663744 | 16.67° C | 53% | 1013.8 hPa | 0 mm | - | 213 W/m² | - |
| 1777663441 | 17.22° C | 54% | 1013.7 hPa | 0 mm | - | 520 W/m² | - |
| 1777663138 | 17.78° C | 52% | 1014 hPa | 0 mm | - | 544 W/m² | - |
| 1777662835 | 16.67° C | 52% | 1014 hPa | 0 mm | - | 571 W/m² | - |
| 1777662532 | 16.67° C | 52% | 1013.8 hPa | 0 mm | - | 556 W/m² | - |
| 1777662228 | 17.22° C | 53% | 1013.7 hPa | 0 mm | - | 468 W/m² | - |
| 1777661923 | 17.22° C | 53% | 1014 hPa | 0 mm | - | 530 W/m² | - |
| 1777661620 | 16.67° C | 53% | 1013.8 hPa | 0 mm | - | 593 W/m² | - |
| 1777661316 | 16.67° C | 54% | 1014 hPa | 0 mm | - | 536 W/m² | - |
| 1777661012 | 16.11° C | 53% | 1013.8 hPa | 0 mm | - | 582 W/m² | - |
| 1777660707 | 16.67° C | 54% | 1014 hPa | 0 mm | - | 517 W/m² | - |
| 1777660405 | 16.67° C | 51% | 1014 hPa | 0 mm | - | 573 W/m² | - |
| 1777660101 | 16.11° C | 53% | 1014.1 hPa | 0 mm | - | 580 W/m² | - |
| 1777659798 | 15.56° C | 55% | 1014.3 hPa | 0 mm | - | 549 W/m² | - |
| 1777659495 | 15.56° C | 56% | 1013.8 hPa | 0 mm | - | 443 W/m² | - |
| 1777659192 | 16.11° C | 56% | 1014.2 hPa | 0 mm | - | 357 W/m² | - |
| 1777658889 | 15.56° C | 54% | 1014.2 hPa | 0 mm | - | 385 W/m² | - |
| 1777658585 | 15.56° C | 53% | 1014.2 hPa | 0 mm | - | 472 W/m² | - |
| 1777658283 | 15.56° C | 55% | 1014.3 hPa | 0 mm | - | 278 W/m² | - |
| 1777657979 | 15.56° C | 53% | 1014.4 hPa | 0 mm | - | 313 W/m² | - |
| 1777657676 | 15.56° C | 51% | 1014.2 hPa | 0 mm | - | 358 W/m² | - |
| 1777657373 | 15.56° C | 53% | 1014.5 hPa | 0 mm | - | 410 W/m² | - |
* Rain latest hour (hover to see other rain measurements)
** Current wind speed in m/s (hover to see current wind gust speed)